AO-07 1 07530U 74089B 24116.57168437 -.00000043 00000-0 21130-4 0 9997 2 07530 101.9779 110.7288 0012149 183.0232 291.4075 12.53674586262447 UO-11 1 14781U 84021B 24116.52125679 .00004171 00000-0 47783-3 0 9992 2 14781 97.7012 87.3977 0006532 245.4358 114.6177 14.86440553140661 AO-16 1 20439U 90005D 24116.57132400 .00000644 00000-0 25058-3 0 9995 2 20439 98.9011 120.2220 0010888 12.1605 102.8729 14.33342116789794 LO-19 1 20442U 90005G 24116.87554419 .00000782 00000-0 29965-3 0 9994 2 20442 98.8814 105.7740 0011384 344.6939 15.3899 14.33503058790341 AO-27 1 22825U 93061C 24116.72853699 .00000421 00000-0 17926-3 0 9996 2 22825 98.7935 168.9445 0007611 226.8678 133.1868 14.30467941595382 IO-26 1 22826U 93061D 24116.58117903 .00000478 00000-0 19942-3 0 9994 2 22826 98.7882 168.6583 0008415 211.6259 148.4419 14.30846146595372 FO-29 1 24278U 96046B 24116.84420426 .00000103 00000-0 14358-3 0 9990 2 24278 98.5773 58.3642 0349512 323.9900 33.8140 13.53184560367609 NOAA-15 1 25338U 98030A 24116.84382520 .00000697 00000-0 30675-3 0 9993 2 25338 98.5734 145.0538 0011480 115.7629 244.4738 14.26549752349979 GO-32 1 25397U 98043D 24116.89206806 .00000461 00000-0 22067-3 0 9994 2 25397 98.9178 82.8475 0000862 6.9799 353.1390 14.24026344340191 ISS 1 25544U 98067A 24116.76570894 .00062894 00000-0 10654-2 0 9997 2 25544 51.6396 215.3361 0004566 95.7745 7.6568 15.50926567450413 NO-44 1 26931U 01043C 24116.37659655 .00000786 00000-0 32849-3 0 9999 2 26931 67.0491 107.9821 0006309 281.6856 78.3538 14.31191609178399 SO-50 1 27607U 02058C 24116.86064298 .00004206 00000-0 58558-3 0 9990 2 27607 64.5578 22.3533 0031107 138.1530 222.1960 14.78712014148796 CO-55 1 27844U 03031E 24116.57482420 .00001168 00000-0 53584-3 0 9992 2 27844 98.6790 124.3375 0008659 301.6667 58.3667 14.23188576 80309 CO-57 1 27848U 03031J 24116.55879743 .00000999 00000-0 46612-3 0 9997 2 27848 98.6821 124.5952 0008785 319.3493 40.7029 14.22640722 80058 RS-22 1 27939U 03042A 24116.88121032 .00004179 00000-0 70946-3 0 9998 2 27939 98.2847 272.2813 0011401 221.2251 295.4497 14.69699461100597 NOAA-18 1 28654U 05018A 24116.81575442 .00000630 00000-0 36008-3 0 9998 2 28654 98.8749 194.2144 0013914 207.6214 152.4220 14.13181773975864 CO-58 1 28895U 05043F 24116.33252241 .00005349 00000-0 95322-3 0 9995 2 28895 98.1936 252.1205 0016393 161.0055 199.1764 14.67369333986709 CO-65 1 32785U 08021C 24116.85936506 .00010891 00000-0 97402-3 0 9996 2 32785 97.7521 82.6671 0012966 133.2159 227.0148 14.95983126867728 AAUSAT2 1 32788U 08021F 24115.91656316 .00038235 00000-0 20583-2 0 9990 2 32788 97.5930 96.1162 0006038 28.4886 331.6674 15.14707366870253 CO-66 1 32791U 08021J 24116.88197816 .00018244 00000-0 13732-2 0 9992 2 32791 97.6840 88.4067 0007100 115.0552 245.1411 15.02553929868740 RS-30 1 32953U 08025A 24116.83976422 .00000047 00000-0 26849-3 0 9995 2 32953 82.4984 122.0491 0018579 215.9943 143.9886 12.43139619722628 PRISM 1 33493U 09002B 24116.85019812 .00034358 00000-0 17495-2 0 9992 2 33493 98.2109 160.0574 0013630 72.9304 287.3418 15.16640846831112 NOAA-19 1 33591U 09005A 24116.83068789 .00000592 00000-0 34156-3 0 9996 2 33591 99.0516 172.0664 0014824 81.5190 278.7661 14.12981589784231 SRMSAT 1 37841U 11058D 24116.38153623 .00000846 00000-0 31843-3 0 9993 2 37841 19.9709 116.1555 0011805 233.2702 270.4667 14.11086708647092 HRBE 1 37855U 11061F 24116.36838726 .00203343 00000-0 20160-2 0 9990 2 37855 101.6884 268.3180 0052797 146.3146 214.1471 15.63353615684748 RS-40 1 38735U 12041C 24116.84294821 .00000052 00000-0 30862-3 0 9995 2 38735 82.4795 202.5067 0016377 335.9457 24.0856 12.42606628532760 ZACUBE-1 1 39417U 13066B 24116.43214814 .00011400 00000-0 12018-2 0 9991 2 39417 97.7305 73.6262 0050422 337.2452 22.6530 14.88539166563735 Delfi-N3xt 1 39428U 13066N 24116.31648664 .00011431 00000-0 14875-2 0 9991 2 39428 97.8398 36.0823 0100639 259.8483 99.1363 14.77263863558288 GOMX-1 1 39430U 13066Q 24116.83339065 .00006604 00000-0 11001-2 0 9997 2 39430 97.7394 354.3788 0142342 59.5761 301.9420 14.63780405555380 LO-74 1 39440U 13066AA 24116.61858650 .00008507 00000-0 10136-2 0 9992 2 39440 97.8107 61.4603 0072743 86.0776 274.8749 14.82650055560548 AO-73 1 39444U 13066AE 24116.89172453 .00014890 00000-0 14696-2 0 9993 2 39444 97.7163 77.0722 0047256 316.5986 43.1515 14.91223419562903 SPROUT 1 39770U 14029E 24116.37464255 .00133413 00000-0 41384-2 0 9999 2 39770 98.0094 264.0062 0006042 294.8496 65.2115 15.32836413539522 DTUSAT-2 1 40030U 14033W 24116.84793596 .00012044 00000-0 10369-2 0 9995 2 40030 98.0044 67.9558 0009245 337.4013 22.6800 14.97483424535372 EO-80 1 40032U 14033Y 24116.41740519 .00013061 00000-0 11228-2 0 9992 2 40032 98.0048 67.5259 0008797 346.2335 13.8645 14.97525215534775 HODOYOSHI-1 1 40299U 14070B 24116.84344960 .00036209 00000-0 76267-3 0 9999 2 40299 97.1440 177.6812 0007504 215.1774 144.8981 15.45152203527036 XW-2C 1 40906U 15049H 24116.84588724 .00041992 00000-0 10796-2 0 9998 2 40906 97.4823 132.4151 0011129 125.6892 234.5390 15.39093255476418 XW-2D 1 40907U 15049J 24116.83040097 .00059542 00000-0 12594-2 0 9992 2 40907 97.4767 134.4168 0009896 117.6557 242.5697 15.44892243476603 LILACSAT-2 1 40908U 15049K 24116.86044399 .00015478 00000-0 61813-3 0 9994 2 40908 97.5262 125.2317 0013239 165.5806 194.5812 15.25156589475513 XW-2B 1 40911U 15049N 24116.83384759 .00058445 00000-0 12616-2 0 9999 2 40911 97.4743 134.5893 0009974 118.9421 241.2828 15.44295142476471 IO-86 1 40931U 15052B 24105.10210969 .00001784 00000-0 15468-3 0 9997 2 40931 5.9979 90.5798 0013295 253.4384 106.4283 14.77734280462071 ChubuSat-2 1 41338U 16012B 24116.06324791 .00011528 00000-0 73289-3 0 9994 2 41338 31.0023 12.5548 0011244 60.7862 299.3899 15.07556466449579 ChubuSat-3 1 41339U 16012C 24116.78202931 .00009517 00000-0 61222-3 0 9994 2 41339 31.0086 6.1084 0011196 73.8390 286.3479 15.07074980449666 Horyu-4 1 41340U 16012D 24114.94022148 .00021260 00000-0 11084-2 0 9991 2 41340 31.0024 328.7474 0009335 137.2275 222.9092 15.14779920449914 e-st@r-II 1 41459U 16025D 24116.62838615 .00917656 38042-3 22680-2 0 9994 2 41459 98.1214 2.9411 0023197 71.2432 289.1356 15.95513281441371 Lapan A3 1 41603U 16040E 24116.81538804 .00006529 00000-0 26589-3 0 9991 2 41603 97.1451 132.9161 0010249 290.0829 69.9306 15.24761732435241 Pratham 1 41783U 16059A 24116.80638663 .00002503 00000-0 47488-3 0 9992 2 41783 97.8399 138.5991 0032546 184.1987 175.8949 14.64725888404873 CAS-2T 1 41847U 16066G 24116.81920148 .00002638 00000-0 39489-3 0 9995 2 41847 98.4621 188.5029 0354271 335.2276 23.2253 14.41059959391950 CAS-4B 1 42759U 17034B 24116.52930757 .00024205 00000-0 92481-3 0 9994 2 42759 43.0151 163.7129 0012916 354.6643 5.4069 15.26100752379352 CAS-4A 1 42761U 17034D 24116.53469934 .00024197 00000-0 92104-3 0 9994 2 42761 43.0166 162.0663 0011668 0.1290 359.9562 15.26239758379365 NIUSat 1 42766U 17036B 24116.82074401 .03066043 22640-5 14039-2 0 9992 2 42766 97.0845 153.1441 0008120 242.6533 117.3931 16.21881045381402 Aalto 1 1 42775U 17036L 24116.59945587 .00088268 00000-0 11480-2 0 9996 2 42775 97.1106 145.9196 0005977 61.6933 298.4926 15.58464883380892 URSA MAIOR 1 42776U 17036M 24116.80286001 .00177017 00000-0 14581-2 0 9996 2 42776 97.1066 149.4971 0003461 66.2202 293.9423 15.69827185381134 Max Valier Sat 1 42778U 17036P 24116.61417079 .00164122 00000-0 13406-2 0 9996 2 42778 97.1046 153.4148 0004079 79.7472 280.4251 15.70066796381280 D-SAT 1 42794U 17036AF 24116.51601436 .00013632 00000-0 97403-3 0 9994 2 42794 97.4970 100.3197 0107367 326.8742 32.5788 14.99992334372829 TechnoSat 1 42829U 17042E 24116.48868751 .00006290 00000-0 56361-3 0 9991 2 42829 97.3836 300.5331 0011489 249.9781 110.0205 14.96075820369291 AO-91 1 43017U 17073E 24116.16939047 .00014337 00000-0 89897-3 0 9998 2 43017 97.5860 353.5604 0215980 110.7009 251.7507 14.92051781347752 TianYi 2 1 43155U 18008A 24116.82463380 .00108979 00000-0 19112-2 0 9993 2 43155 97.2430 170.1526 0007181 250.5385 109.5092 15.50143267346768 Zhou Enlai 1 43156U 18008B 24116.85410590 .00158762 00000-0 21936-2 0 9994 2 43156 97.2463 171.4933 0005852 243.8138 116.2516 15.56591201346762 TianYi 6 1 43158U 18008D 24116.65365618 .00061307 00000-0 14611-2 0 9994 2 43158 97.2588 165.3199 0005958 265.7037 94.3529 15.41352537346363 S-Net D 1 43186U 18014G 24116.63487497 .00008175 00000-0 59763-3 0 9992 2 43186 97.5944 19.4151 0010675 174.7381 185.3959 15.03834277340606 S-Net B 1 43187U 18014H 24116.70343925 .00007953 00000-0 58148-3 0 9997 2 43187 97.5952 19.4286 0011759 170.1551 189.9908 15.03830400340617 S-Net A 1 43188U 18014J 24116.70260201 .00008168 00000-0 59700-3 0 9997 2 43188 97.5957 19.5360 0011483 170.9269 189.2167 15.03837314340616 S-Net C 1 43189U 18014K 24116.23986388 .00007884 00000-0 57631-3 0 9992 2 43189 97.5984 19.0182 0013614 165.7319 194.4294 15.03824940339090 Changshagaoxin 1 43669U 18083H 24116.84326680 .00744415 22549-3 24116-2 0 9995 2 43669 97.3256 154.7772 0003803 194.3320 165.7846 15.90803001305531 Ten-Koh 1 43677U 18084G 24116.42820792 .00007403 00000-0 67208-3 0 9996 2 43677 98.0554 268.4504 0014274 187.4662 172.6347 14.95516542298833 PO-101 1 43678U 18084H 24116.87343341 .00004122 00000-0 38238-3 0 9992 2 43678 98.0658 273.3601 0008692 197.0933 162.9995 14.94994486299105 QO-100 1 43700U 18090A 24116.84987928 .00000159 00000-0 00000+0 0 9995 2 43700 0.0084 227.7728 0001721 204.3258 113.9934 1.00271722 20079 MinXSS-2 1 43758U 18099A 24116.76084210 .00017285 00000-0 11326-2 0 9994 2 43758 97.5581 179.9630 0018822 135.8015 224.4720 15.07626689294885 AO-95 1 43770U 18099N 24116.12614624 .00014947 00000-0 10626-2 0 9990 2 43770 97.5485 175.1312 0014540 178.9911 181.1347 15.04684294294587 RANGE-B 1 43772U 18099Q 24116.41484704 .00018251 00000-0 11778-2 0 9999 2 43772 97.5275 178.7259 0006732 95.9668 264.2327 15.08305530294764 RANGE-A 1 43773U 18099R 24116.61043261 .00008451 00000-0 65268-3 0 9996 2 43773 97.5098 171.5500 0016690 148.6750 211.5473 15.01672480294547 MOVE-II 1 43780U 18099Y 24116.70285134 .00025917 00000-0 14516-2 0 9996 2 43780 97.5252 180.2595 0008401 153.0672 207.0996 15.13366926294988 SNUSat 2 1 43782U 18099AA 24116.64495554 .00012187 00000-0 88363-3 0 9997 2 43782 97.5175 175.0701 0016092 120.9653 239.3157 15.03970811294678 SnugLite 1 43784U 18099AC 24116.70173203 .00013438 00000-0 94868-3 0 9997 2 43784 97.4999 174.5025 0005947 125.9245 234.2534 15.05042203294743 ITASat 1 1 43786U 18099AE 24116.09606833 .00012336 00000-0 90805-3 0 9994 2 43786 97.5155 174.8774 0018211 167.8799 192.2868 15.03369525294594 EAGLET 1 1 43790U 18099AJ 24116.16279199 .00008709 00000-0 66394-3 0 9993 2 43790 97.5355 175.4040 0015721 146.7750 213.4465 15.02170327294318 ESEO 1 43792U 18099AL 24116.15443535 .00004654 00000-0 38519-3 0 9994 2 43792 97.5196 172.5851 0013598 149.3466 210.8555 14.99288772294257 CSIM 1 43793U 18099AM 24116.62156145 .00023000 00000-0 12906-2 0 9992 2 43793 97.5319 181.8582 0014595 133.5110 226.7336 15.13265777294821 JO-97 1 43803U 18099AX 24116.70555022 .00015392 00000-0 10527-2 0 9992 2 43803 97.5246 176.5748 0011576 121.2233 239.0130 15.06155299294797 Suomi 100 1 43804U 18099AY 24116.66565656 .00013746 00000-0 95588-3 0 9994 2 43804 97.5308 176.3432 0017615 120.5911 239.7056 15.05489532294771 CHOMPTT 1 43855U 18104G 24116.53113312 .00501452 96988-4 14714-2 0 9992 2 43855 85.0030 307.6979 0004544 215.9583 144.1392 15.92692394299288 ISAT 1 43879U 18111D 24116.32223402 .00016819 00000-0 10653-2 0 9997 2 43879 97.6240 22.3267 0013888 170.3979 189.7517 15.08950714291445 UWE-4 1 43880U 18111E 24116.67581716 .00016305 00000-0 10537-2 0 9993 2 43880 97.6167 22.8217 0016988 181.1271 178.9922 15.08181091289513 Sparrow 1 43881U 18111F 24116.70847746 .00018387 00000-0 11496-2 0 9993 2 43881 97.6313 24.5136 0009432 209.3831 150.6869 15.09450519289564 AISat 1 1 44104U 19018AC 24116.57830360 .00168295 00000-0 91629-3 0 9999 2 44104 97.3617 223.9240 0019286 180.2161 179.9101 15.79215752284528 Prox-1 1 44339U 19036A 24116.50013745 .00015458 00000-0 27473-2 0 9999 2 44339 23.9977 204.0488 0009657 127.4174 232.7200 14.65522731257502 SONATE 1 44400U 19038Q 24116.52646278 .00029937 00000-0 97623-3 0 9997 2 44400 97.7127 108.3722 0014229 294.8568 65.1193 15.31660180266011 BeeSat 9 1 44412U 19038AC 24115.55602101 .00295540 00000-0 22602-2 0 9998 2 44412 97.6806 118.4646 0005938 202.3909 157.7094 15.71256961266340 JAISAT-1 1 44419U 19038F 24116.54217897 .00249469 00000-0 20085-2 0 9991 2 44419 97.6787 120.5438 0005892 198.6338 161.4709 15.70151047266871 Taurus 1 1 44530U 19059C 24116.83296092 .00013813 00000-0 32535-2 0 9999 2 44530 98.5699 235.6695 0012323 208.8785 151.1731 14.54362834244154 Duchifat 3 1 44854U 19089C 24116.81296273 .00026947 00000-0 14334-2 0 9999 2 44854 36.9594 6.5536 0008093 358.8843 1.1884 15.14445319240259 OPS-SAT 1 44878U 19092F 24116.55656526 .00356644 00000-0 20674-2 0 9995 2 44878 97.4421 320.1645 0001141 103.6724 256.4669 15.77568174242255 TO-108 1 44881U 19093C 24116.84061069 .00003284 00000-0 40441-3 0 9998 2 44881 97.8289 194.6363 0015551 130.8611 229.3954 14.83542145235280 FloripaSat 1 1 44885U 19093G 24116.83110256 .00011377 00000-0 11983-2 0 9994 2 44885 97.8403 199.8339 0013965 126.9746 233.2752 14.89450339235575 RS-44 1 44909U 19096E 24116.57413946 .00000028 00000-0 66431-4 0 9998 2 44909 82.5185 139.7380 0217653 173.9173 186.4652 12.79729001202243 BY70-2 1 45857U 20042B 24116.82191860 .00125999 00000-0 61102-2 0 9993 2 45857 97.9078 207.4756 0003270 6.3673 353.7600 15.17931453206572 UPMSat 2 1 46276U 20061E 24116.16103948 .00023792 00000-0 77378-3 0 9998 2 46276 97.3010 183.0933 0000675 89.7247 270.4073 15.31885277202058 AmicalSat 1 46287U 20061R 24116.71451499 .00041534 00000-0 12809-2 0 9999 2 46287 97.3522 184.0873 0002603 89.8017 270.3524 15.33465615201513 SALSAT 1 46495U 20068K 24116.88483004 .00013007 00000-0 75427-3 0 9992 2 46495 97.8130 74.9138 0015732 127.3775 232.8889 15.12203435196406 ExoCube 2 1 47319U 21002L 24116.73550070 .01435481 14046-2 15750-2 0 9993 2 47319 60.6516 265.6200 0004469 345.1618 14.9377 16.09607339182974 UVSQ-SAT 1 47438U 21006AB 24116.71044710 .00061618 00000-0 14316-2 0 9992 2 47438 97.3313 176.6970 0006578 54.8464 305.3398 15.42115109180635 YUSAT 1 1 47439U 21006AC 24116.16682138 .00127698 00000-0 18748-2 0 9998 2 47439 97.3290 179.6005 0003827 44.8576 315.2988 15.55055381180778 SOMP 2b 1 47445U 21006AJ 24116.68648934 .00052911 00000-0 13246-2 0 9991 2 47445 97.3282 175.2048 0007143 64.0396 296.1585 15.39889112180560 IDEASSat 1 47458U 21006AX 24116.70925199 .00047470 00000-0 12738-2 0 9998 2 47458 97.3386 175.8745 0007097 65.3624 294.8360 15.37782374180516 CubeSX-Sirius-HSE 1 47951U 21022V 24116.86148912 .00030721 00000-0 12939-2 0 9995 2 47951 97.4660 15.4366 0013438 329.7884 30.2577 15.23214436170604 CubeSX-HSE 1 47952U 21022W 24116.75292271 .00029444 00000-0 12369-2 0 9999 2 47952 97.4659 15.4111 0013346 329.4778 30.5681 15.23312627170596 KSU-Cubesat 1 47954U 21022Y 24116.70220732 .00034523 00000-0 13493-2 0 9992 2 47954 97.4668 16.4578 0012023 326.1030 33.9439 15.25718871170379 GRBAlpha 1 47959U 21022AD 24116.85199795 .00030152 00000-0 12626-2 0 9998 2 47959 97.4665 15.6496 0013120 329.3693 30.6777 15.23417951169437 Orbicraft-Zorkiy 1 47960U 21022AE 24116.84304285 .00032323 00000-0 12854-2 0 9996 2 47960 97.4703 16.7446 0012242 326.6639 33.3826 15.25150800170170 STECCO 1 47962U 21022AG 24116.85022074 .00119696 00000-0 23439-2 0 9992 2 47962 97.4666 24.3453 0002885 269.9000 90.1919 15.46949700170000 MO-110 1 47964U 21022AJ 24116.57789069 .00138902 00000-0 23906-2 0 9997 2 47964 97.4687 25.4926 0003683 257.1373 102.9467 15.50582351170045 TUBIN 1 48900U 21059X 24116.84026375 .00026240 00000-0 95629-3 0 9995 2 48900 97.6393 260.0506 0006557 266.1464 93.9026 15.28145279156927 LEDSAT 1 49069U 21073D 24116.19349233 .00025814 00000-0 11014-2 0 9998 2 49069 97.4404 187.7514 0021351 110.5146 249.8384 15.22683658148389 CUTE 1 49263U 21088D 24116.74758316 .00025596 00000-0 12784-2 0 9999 2 49263 97.5009 183.1610 0013687 259.1598 100.8095 15.17378623141686 TeikyoSat 4 1 49396U 21102B 24116.55936491 .00004828 00000-0 35301-3 0 9990 2 49396 97.4630 163.3538 0014725 95.8176 264.4729 15.03984706134843 Z-Sat 1 49399U 21102E 24116.79077619 .00008980 00000-0 58722-3 0 9992 2 49399 97.4366 165.0114 0022423 79.4983 280.8771 15.07797296135096 KOSEN 1 1 49402U 21102H 24116.66866434 .00010776 00000-0 65242-3 0 9995 2 49402 97.4292 166.1522 0020492 66.1076 294.2298 15.10602495135211 HO-113 1 50466U 21131B 24116.85895365 .00002121 00000-0 69390-3 0 9998 2 50466 98.5270 202.1790 0002983 284.7594 75.3264 14.39527955122479 Tevel-3 1 50988U 22002E 24116.85742723 .00135290 00000-0 21298-2 0 9992 2 50988 97.3826 190.6593 0005212 195.9093 164.1997 15.53094383126890 Tevel-8 1 50989U 22002F 24116.82960516 .00131603 00000-0 20834-2 0 9991 2 50989 97.3853 190.7193 0005271 198.8844 161.2214 15.52951578126885 Tevel-5 1 50998U 22002Q 24116.75620702 .00149233 00000-0 20702-2 0 9995 2 50998 97.3817 191.6353 0005522 192.2859 167.8263 15.56516994126953 Tevel-6 1 50999U 22002R 24116.82419471 .00154616 00000-0 21517-2 0 9999 2 50999 97.3813 191.6797 0005426 192.5943 167.5177 15.56412594126965 Tevel-1 1 51013U 22002AF 24116.81824352 .00134538 00000-0 21306-2 0 9991 2 51013 97.3817 190.4917 0005154 192.8191 167.2932 15.52931812126886 IRIS-A 1 51044U 22002BN 24116.68152702 .00027151 00000-0 96044-3 0 9997 2 51044 97.3882 183.4568 0006351 206.0125 154.0797 15.29114721126396 Tevel-7 1 51062U 22002CG 24116.82056840 .00133858 00000-0 21095-2 0 9994 2 51062 97.3835 190.6852 0005159 192.7835 167.3288 15.53070360126887 Tevel-4 1 51063U 22002CH 24116.85196164 .00134386 00000-0 21422-2 0 9993 2 51063 97.3834 190.6343 0005273 191.2073 168.9063 15.52748905126881 Tevel-2 1 51069U 22002CP 24116.79153971 .00133289 00000-0 20972-2 0 9991 2 51069 97.3822 190.5595 0005133 194.8631 165.2472 15.53116631126886 SO-115 1 51080U 22002DA 24116.18815736 .00333231 00000-0 23871-2 0 9991 2 51080 97.4089 198.3899 0007864 227.5487 132.5112 15.72698279127146 SO-114 1 51081U 22002DB 24116.17949782 .00390076 00000-0 24761-2 0 9999 2 51081 97.4103 198.6288 0007822 233.2796 126.7751 15.75373399127162 OreSat0 1 52017U 22026K 24116.58498129 .00077390 00000-0 15759-2 0 9992 2 52017 97.4994 128.7770 0015027 59.8154 300.4581 15.45862658117569 Planetum 1 1 52738U 22057G 24116.86199533 .00055815 00000-0 15562-2 0 9994 2 52738 97.5604 241.3332 0004950 329.4736 30.6218 15.36563101106523 Foresail-1 1 52766U 22057AL 24116.83202147 .00030280 00000-0 10568-2 0 9998 2 52766 97.5758 241.2275 0009157 316.3833 43.6682 15.29513126106440 SNUGLITE 2 1 52899U 22065F 24116.85793014 .00004144 00000-0 86180-3 0 9998 2 52899 98.1119 259.0472 0006826 323.4307 36.6427 14.60574391 96628 IO-117 1 53106U 22080B 24114.18200038 -.00000003 00000-0 00000-0 0 9995 2 53106 70.1426 211.6253 0007954 118.4778 241.6683 6.42557291 41734 SelfieSat 1 53951U 22057BC 24116.88197597 .00100057 00000-0 20256-2 0 9997 2 53951 97.5631 244.2056 0005974 305.6951 54.3741 15.46043098106688 FO-118 1 54684U 22167C 24116.82946712 .00040784 00000-0 15422-2 0 9997 2 54684 97.5992 260.5691 0010112 327.7317 32.3301 15.26799811 76301 SSS-2B 1 56184U 23054G 24116.81203547 .00048936 00000-0 13527-2 0 9992 2 56184 97.3752 14.4996 0007584 24.1170 336.0428 15.36849344 58085 CIRBE 1 56188U 23054L 24116.25134783 .00076774 00000-0 16237-2 0 9991 2 56188 97.3670 15.1158 0005497 24.1320 336.0185 15.44856439 58097 INSPIRE-Sat 7 1 56211U 23054AK 24116.62276339 .00078431 00000-0 15714-2 0 9994 2 56211 97.3713 16.5926 0006456 350.9045 9.2086 15.46431893 58218 RoseyCubesat 1 1 56212U 23054AL 24116.80794071 .00100237 00000-0 18260-2 0 9992 2 56212 97.3715 17.2848 0005804 349.1417 10.9708 15.49100677 58273 SO-120 1 56992U 23084BU 24116.54844162 .00042150 00000-0 17027-2 0 9997 2 56992 97.5259 235.4981 0013938 208.3144 151.7337 15.24543135 48156 MRC-100 1 56993U 23084BV 24116.31873760 .00044300 00000-0 17130-2 0 9993 2 56993 97.5261 235.5194 0013580 209.0194 151.0290 15.25998309 48141 UmKA 1 (RS40S) 1 57172U 23091G 24116.75067124 .00009738 00000-0 65648-3 0 9992 2 57172 97.6169 169.3419 0015587 302.5643 57.4078 15.06766738 45597 CubeBel-2 (EU11S) 1 57175U 23091K 24116.71985699 .00011606 00000-0 77321-3 0 9995 2 57175 97.6162 169.2182 0014030 315.9841 44.0268 15.07175758 45588 VERONIKA 1 58261U 23174F 24116.72836027 .00026539 00000-0 12720-2 0 9997 2 58261 97.4628 192.0800 0013417 71.7970 288.4723 15.18810443 25744 KAFASAT 1 58317U 23174BP 24116.84531662 .00033996 00000-0 15075-2 0 9990 2 58317 97.4571 192.5689 0011546 50.4128 309.8125 15.21459687 25795 ENSO 1 58470U 23185J 24116.74599006 .00025109 00000-0 11230-2 0 9993 2 58470 97.4301 184.0849 0014419 104.7354 255.5481 15.21196659 22163 EIRSAT-1 1 58472U 23185L 24116.66921216 .00026721 00000-0 11826-2 0 9990 2 58472 97.4293 184.0197 0014103 106.2765 254.0023 15.21547682 22155 SO-121 1 58567U 23174CY 24116.17340700 .00059447 00000-0 24313-2 0 9998 2 58567 97.4571 191.9562 0012776 60.2094 300.0411 15.24047278 25694 SONATE-2 1 59112U 24043Q 24116.82839457 .00020126 00000-0 10113-2 0 9990 2 59112 97.4716 241.3131 0016436 116.9756 243.3158 15.17180210 7867 KASHIWA 1 59508U 98067WH 24116.53795638 .00120560 00000-0 18100-2 0 9993 2 59508 51.6374 216.2798 0002292 78.2259 281.8988 15.53989111 2276 /EX